| time (UTC) | temp C | wind direction | speed KPH | gust KPH | rain 1hr cm | rain 24hr cm | rain mn cm | humidity % | barometer mb |
| 20260509235103 | 16 | 153 | 1.6 | 8.0 | 0.00 | 0.86 | 0.03 | 75 | 1011.8 |
| 20260509234803 | 16 | 150 | 4.8 | 8.0 | 0.00 | 0.86 | 0.03 | 74 | 1012.1 |
| 20260509234504 | 16 | 148 | 3.2 | 9.7 | 0.00 | 0.86 | 0.03 | 74 | 1012.0 |
| 20260509234203 | 16 | 147 | 4.8 | 9.7 | 0.00 | 0.86 | 0.03 | 74 | 1012.0 |
| 20260509233904 | 16 | 152 | 1.6 | 9.7 | 0.00 | 0.86 | 0.03 | 74 | 1012.0 |
| 20260509233604 | 16 | 151 | 6.4 | 9.7 | 0.00 | 0.86 | 0.03 | 74 | 1012.1 |
| 20260509233304 | 16 | 150 | 3.2 | 11.3 | 0.00 | 0.86 | 0.03 | 74 | 1012.2 |
| 20260509232704 | 16 | 153 | 3.2 | 12.9 | 0.00 | 0.86 | 0.03 | 73 | 1012.2 |
| 20260509232403 | 16 | 149 | 6.4 | 12.9 | 0.00 | 0.86 | 0.03 | 71 | 1012.1 |
| 20260509232104 | 16 | 151 | 6.4 | 12.9 | 0.00 | 0.86 | 0.03 | 69 | 1012.2 |
| 20260509231504 | 18 | 191 | 6.4 | 9.7 | 0.00 | 0.86 | 0.03 | 67 | 1012.2 |
| 20260509230904 | 18 | 246 | 3.2 | 6.4 | 0.00 | 0.86 | 0.03 | 72 | 1012.2 |
| 20260509230606 | 18 | 300 | 0.0 | 6.4 | 0.00 | 0.86 | 0.03 | 73 | 1012.2 |
| 20260509230004 | 16 | 239 | 0.0 | 6.4 | 0.00 | 0.86 | 0.03 | 76 | 1012.3 |
| 20260509225704 | 16 | 167 | 0.0 | 8.0 | 0.00 | 0.86 | 0.03 | 77 | 1012.4 |
| 20260509225404 | 16 | 170 | 1.6 | 8.0 | 0.00 | 0.86 | 0.03 | 77 | 1012.4 |
| 20260509225104 | 15 | 159 | 4.8 | 9.7 | 0.00 | 0.86 | 0.03 | 77 | 1012.5 |
| 20260509224804 | 15 | 156 | 4.8 | 9.7 | 0.00 | 0.86 | 0.03 | 79 | 1012.5 |
| 20260509224504 | 15 | 151 | 3.2 | 9.7 | 0.00 | 0.86 | 0.03 | 79 | 1012.7 |
| 20260509224204 | 16 | 155 | 4.8 | 9.7 | 0.00 | 0.86 | 0.03 | 82 | 1012.6 |
| 20260509223903 | 16 | 194 | 3.2 | 6.4 | 0.00 | 0.86 | 0.03 | 83 | 1012.7 |
| 20260509223303 | 15 | 189 | 1.6 | 6.4 | 0.00 | 0.86 | 0.03 | 87 | 1012.6 |
| 20260509223004 | 16 | 198 | 0.0 | 6.4 | 0.00 | 0.86 | 0.03 | 88 | 1012.7 |
| 20260509222704 | 16 | 188 | 1.6 | 6.4 | 0.00 | 0.86 | 0.03 | 90 | 1012.6 |
| 20260509222404 | 16 | 189 | 1.6 | 6.4 | 0.00 | 0.86 | 0.03 | 91 | 1012.5 |
| 20260509221503 | 16 | 248 | 0.0 | 3.2 | 0.00 | 0.86 | 0.03 | 94 | 1012.6 |
| 20260509221204 | 16 | 248 | 0.0 | 1.6 | 0.00 | 0.86 | 0.03 | 96 | 1012.5 |
| 20260509220904 | 16 | 248 | 0.0 | 1.6 | 0.00 | 0.86 | 0.03 | 97 | 1012.4 |
| 20260509220603 | 16 | 248 | 0.0 | 1.6 | 0.00 | 0.86 | 0.03 | 97 | 1012.6 |
| 20260509220303 | 16 | 0 | 0.0 | 0.0 | 0.00 | 0.86 | 0.03 | 98 | 1012.6 |
| 20260509220004 | 16 | 0 | 0.0 | 0.0 | 0.00 | 0.86 | 0.03 | 98 | 1012.5 |
| 20260509215703 | 15 | 0 | 0.0 | 0.0 | 0.00 | 0.86 | 0.03 | 99 | 1012.6 |
| 20260509215403 | 15 | 0 | 0.0 | 0.0 | 0.00 | 0.86 | 0.03 | 99 | 1012.6 |
| 20260509215104 | 14 | 0 | 0.0 | 0.0 | 0.00 | 0.86 | 0.03 | 99 | 1012.5 |
| 20260509214504 | 12 | 292 | 0.0 | 3.2 | 0.00 | 0.86 | 0.03 | 97 | 1012.6 |
| 20260509214206 | 12 | 292 | 0.0 | 3.2 | 0.00 | 0.86 | 0.03 | 97 | 1012.6 |
| 20260509213904 | 12 | 292 | 0.0 | 3.2 | 0.00 | 0.86 | 0.03 | 97 | 1012.6 |
| 20260509213604 | 12 | 45 | 0.0 | 1.6 | 0.00 | 0.86 | 0.03 | 97 | 1012.8 |
| 20260509213304 | 12 | 45 | 0.0 | 1.6 | 0.00 | 0.86 | 0.03 | 97 | 1012.7 |
| 20260509212704 | 12 | 0 | 0.0 | 0.0 | 0.00 | 0.86 | 0.03 | 97 | 1012.7 |
| 20260509212403 | 12 | 292 | 0.0 | 1.6 | 0.00 | 0.86 | 0.03 | 97 | 1012.7 |
| 20260509212106 | 12 | 348 | 0.0 | 1.6 | 0.00 | 0.86 | 0.03 | 97 | 1012.6 |
| 20260509211803 | 12 | 348 | 0.0 | 1.6 | 0.00 | 0.86 | 0.03 | 97 | 1012.6 |
| 20260509211504 | 12 | 348 | 0.0 | 1.6 | 0.00 | 0.86 | 0.03 | 97 | 1012.6 |
| 20260509211204 | 12 | 45 | 0.0 | 1.6 | 0.00 | 0.86 | 0.03 | 97 | 1012.6 |
| 20260509210903 | 12 | 1 | 0.0 | 1.6 | 0.00 | 0.86 | 0.03 | 97 | 1012.6 |
| 20260509210604 | 12 | 1 | 0.0 | 1.6 | 0.00 | 0.86 | 0.03 | 97 | 1012.6 |
| 20260509210304 | 12 | 1 | 0.0 | 1.6 | 0.00 | 0.86 | 0.03 | 97 | 1012.5 |
| 20260509210004 | 12 | 0 | 0.0 | 0.0 | 0.00 | 0.86 | 0.03 | 97 | 1012.7 |
| 20260509205706 | 11 | 0 | 0.0 | 0.0 | 0.00 | 0.86 | 0.03 | 98 | 1012.6 |
| 20260509205404 | 11 | 0 | 0.0 | 0.0 | 0.00 | 0.86 | 0.03 | 98 | 1012.6 |
| 20260509205103 | 11 | 0 | 0.0 | 0.0 | 0.00 | 0.86 | 0.03 | 99 | 1012.7 |
| 20260509204804 | 10 | 0 | 0.0 | 0.0 | 0.00 | 0.86 | 0.03 | 99 | 1012.7 |
| 20260509204504 | 10 | 0 | 0.0 | 0.0 | 0.00 | 0.86 | 0.03 | 99 | 1012.6 |
| 20260509204204 | 10 | 0 | 0.0 | 0.0 | 0.00 | 0.86 | 0.03 | 99 | 1012.8 |
| 20260509203606 | 10 | 248 | 0.0 | 1.6 | 0.00 | 0.86 | 0.03 | 99 | 1012.5 |
| 20260509203303 | 10 | 248 | 0.0 | 1.6 | 0.00 | 0.86 | 0.03 | 99 | 1012.7 |
| 20260509202705 | 10 | 0 | 0.0 | 0.0 | 0.00 | 0.86 | 0.03 | 99 | 1012.5 |
| 20260509202403 | 10 | 0 | 0.0 | 0.0 | 0.00 | 0.86 | 0.03 | 99 | 1012.5 |
| 20260509202104 | 10 | 0 | 0.0 | 0.0 | 0.00 | 0.86 | 0.03 | 99 | 1012.5 |
| 20260509201503 | 10 | 0 | 0.0 | 0.0 | 0.00 | 0.86 | 0.03 | 99 | 1012.2 |
| 20260509201204 | 10 | 0 | 0.0 | 0.0 | 0.00 | 0.86 | 0.03 | 99 | 1012.2 |
| 20260509200904 | 10 | 0 | 0.0 | 0.0 | 0.00 | 0.86 | 0.03 | 99 | 1012.2 |
| 20260509200604 | 10 | 248 | 0.0 | 1.6 | 0.00 | 0.86 | 0.03 | 99 | 1012.2 |
| 20260509200304 | 10 | 248 | 0.0 | 3.2 | 0.00 | 0.86 | 0.03 | 99 | 1012.1 |
| 20260509200004 | 10 | 236 | 0.0 | 3.2 | 0.00 | 0.86 | 0.03 | 99 | 1012.1 |
| 20260509195704 | 10 | 244 | 0.0 | 3.2 | 0.00 | 0.86 | 0.03 | 99 | 1012.2 |
| 20260509195404 | 10 | 244 | 0.0 | 3.2 | 0.00 | 0.86 | 0.03 | 99 | 1012.1 |
| 20260509195103 | 10 | 244 | 0.0 | 3.2 | 0.00 | 0.86 | 0.03 | 99 | 1012.0 |
| 20260509194804 | 10 | 243 | 1.6 | 3.2 | 0.00 | 0.86 | 0.03 | 99 | 1012.4 |
| 20260509194504 | 10 | 239 | 0.0 | 3.2 | 0.00 | 0.86 | 0.03 | 99 | 1012.1 |
| 20260509194203 | 10 | 206 | 0.0 | 3.2 | 0.00 | 0.86 | 0.03 | 99 | 1012.0 |
| 20260509193603 | 9 | 143 | 0.0 | 3.2 | 0.00 | 0.86 | 0.03 | 99 | 1012.1 |
| 20260509193305 | 9 | 148 | 0.0 | 3.2 | 0.00 | 0.86 | 0.03 | 99 | 1011.9 |
| 20260509193006 | 9 | 191 | 0.0 | 3.2 | 0.00 | 0.86 | 0.03 | 99 | 1012.0 |
| 20260509192705 | 10 | 248 | 0.0 | 3.2 | 0.00 | 0.86 | 0.03 | 99 | 1011.9 |
| 20260509191804 | 10 | 274 | 0.0 | 4.8 | 0.00 | 0.86 | 0.03 | 99 | 1012.0 |
| 20260509191203 | 10 | 135 | 0.0 | 1.6 | 0.00 | 0.86 | 0.03 | 99 | 1011.9 |
| 20260509190904 | 10 | 135 | 0.0 | 1.6 | 0.00 | 0.86 | 0.03 | 99 | 1012.0 |
| 20260509190605 | 10 | 0 | 0.0 | 0.0 | 0.00 | 0.86 | 0.03 | 99 | 1011.8 |
| 20260509190304 | 10 | 0 | 0.0 | 0.0 | 0.00 | 0.86 | 0.03 | 99 | 1011.9 |
| 20260509190004 | 10 | 0 | 0.0 | 0.0 | 0.00 | 0.86 | 0.03 | 99 | 1012.1 |
| 20260509185704 | 10 | 0 | 0.0 | 0.0 | 0.00 | 0.86 | 0.03 | 99 | 1011.8 |
| 20260509185403 | 10 | 0 | 0.0 | 0.0 | 0.00 | 0.86 | 0.03 | 99 | 1011.9 |
| 20260509185106 | 10 | 0 | 0.0 | 0.0 | 0.00 | 0.86 | 0.03 | 99 | 1011.8 |
| 20260509184803 | 10 | 0 | 0.0 | 0.0 | 0.00 | 0.86 | 0.03 | 99 | 1011.9 |
| 20260509184505 | 10 | 0 | 0.0 | 0.0 | 0.00 | 0.86 | 0.03 | 99 | 1011.9 |
| 20260509184204 | 10 | 0 | 0.0 | 0.0 | 0.00 | 0.86 | 0.03 | 99 | 1011.9 |
| 20260509183903 | 10 | 0 | 0.0 | 0.0 | 0.00 | 0.86 | 0.03 | 99 | 1011.9 |
| 20260509183604 | 10 | 0 | 0.0 | 0.0 | 0.00 | 0.86 | 0.03 | 99 | 1011.9 |
| 20260509183303 | 10 | 0 | 0.0 | 0.0 | 0.00 | 0.86 | 0.03 | 99 | 1011.8 |
| 20260509183005 | 10 | 0 | 0.0 | 0.0 | 0.00 | 0.86 | 0.03 | 99 | 1011.6 |
| 20260509182704 | 10 | 0 | 0.0 | 0.0 | 0.00 | 0.86 | 0.03 | 99 | 1011.8 |
| 20260509182404 | 10 | 0 | 0.0 | 0.0 | 0.00 | 0.86 | 0.03 | 99 | 1011.9 |
| 20260509181806 | 10 | 0 | 0.0 | 0.0 | 0.00 | 0.86 | 0.03 | 99 | 1011.7 |
| 20260509181204 | 10 | 0 | 0.0 | 0.0 | 0.00 | 0.86 | 0.03 | 99 | 1011.8 |
| 20260509180904 | 10 | 0 | 0.0 | 0.0 | 0.00 | 0.86 | 0.03 | 99 | 1011.8 |
| 20260509180304 | 10 | 0 | 0.0 | 0.0 | 0.00 | 0.86 | 0.03 | 99 | 1011.9 |
| 20260509180005 | 9 | 0 | 0.0 | 0.0 | 0.00 | 0.86 | 0.03 | 99 | 1011.8 |
| 20260509175703 | 9 | 0 | 0.0 | 0.0 | 0.00 | 0.86 | 0.03 | 99 | 1011.8 |
| 20260509175404 | 9 | 0 | 0.0 | 0.0 | 0.00 | 0.86 | 0.03 | 99 | 1011.8 |
| 20260509175104 | 9 | 0 | 0.0 | 0.0 | 0.00 | 0.86 | 0.03 | 99 | 1011.8 |
| 20260509174804 | 9 | 0 | 0.0 | 0.0 | 0.00 | 0.86 | 0.03 | 99 | 1011.6 |
| 20260509174504 | 9 | 0 | 0.0 | 0.0 | 0.00 | 0.86 | 0.03 | 99 | 1011.8 |
| 20260509174204 | 9 | 0 | 0.0 | 0.0 | 0.00 | 0.86 | 0.03 | 99 | 1011.7 |
| 20260509173903 | 9 | 0 | 0.0 | 0.0 | 0.00 | 0.86 | 0.03 | 99 | 1011.7 |
| 20260509173604 | 9 | 0 | 0.0 | 0.0 | 0.00 | 0.86 | 0.03 | 99 | 1011.9 |
| 20260509173303 | 9 | 0 | 0.0 | 0.0 | 0.00 | 0.86 | 0.03 | 99 | 1011.9 |
| 20260509173004 | 9 | 0 | 0.0 | 0.0 | 0.00 | 0.86 | 0.03 | 99 | 1011.7 |
| 20260509172704 | 9 | 0 | 0.0 | 0.0 | 0.00 | 0.86 | 0.03 | 99 | 1011.7 |
| 20260509172403 | 9 | 0 | 0.0 | 0.0 | 0.00 | 0.86 | 0.03 | 99 | 1011.6 |
| 20260509172104 | 9 | 0 | 0.0 | 0.0 | 0.00 | 0.86 | 0.03 | 99 | 1011.6 |
| 20260509171803 | 9 | 0 | 0.0 | 0.0 | 0.00 | 0.86 | 0.03 | 99 | 1011.7 |
| 20260509171504 | 9 | 0 | 0.0 | 0.0 | 0.00 | 0.86 | 0.03 | 99 | 1011.5 |
| 20260509171203 | 9 | 0 | 0.0 | 0.0 | 0.00 | 0.86 | 0.03 | 99 | 1011.6 |
| 20260509170907 | 9 | 0 | 0.0 | 0.0 | 0.00 | 0.86 | 0.03 | 99 | 1011.9 |
| 20260509170603 | 9 | 0 | 0.0 | 0.0 | 0.00 | 0.86 | 0.03 | 99 | 1011.8 |
| 20260509170304 | 9 | 348 | 0.0 | 3.2 | 0.03 | 0.86 | 0.03 | 99 | 1011.7 |
| 20260509170006 | 9 | 26 | 0.0 | 4.8 | 0.03 | 0.86 | 0.03 | 99 | 1011.8 |
| 20260509165704 | 9 | 26 | 0.0 | 4.8 | 0.03 | 0.86 | 0.03 | 99 | 1011.8 |
| 20260509165404 | 9 | 26 | 0.0 | 4.8 | 0.03 | 0.86 | 0.03 | 99 | 1011.7 |
| 20260509165103 | 9 | 314 | 1.6 | 3.2 | 0.03 | 0.86 | 0.03 | 99 | 1011.7 |
| 20260509164804 | 9 | 0 | 0.0 | 0.0 | 0.03 | 0.86 | 0.03 | 99 | 1011.5 |
| 20260509164503 | 9 | 0 | 0.0 | 0.0 | 0.03 | 0.86 | 0.03 | 99 | 1011.4 |
| 20260509164203 | 9 | 0 | 0.0 | 0.0 | 0.03 | 0.86 | 0.03 | 99 | 1011.6 |
| 20260509163604 | 9 | 0 | 0.0 | 0.0 | 0.03 | 0.86 | 0.03 | 99 | 1011.6 |
| 20260509163304 | 9 | 0 | 0.0 | 0.0 | 0.03 | 0.86 | 0.03 | 99 | 1011.4 |
| 20260509163004 | 9 | 0 | 0.0 | 0.0 | 0.03 | 0.86 | 0.03 | 99 | 1011.4 |
| 20260509162704 | 9 | 0 | 0.0 | 0.0 | 0.03 | 0.86 | 0.03 | 99 | 1011.7 |
| 20260509162104 | 9 | 0 | 0.0 | 0.0 | 0.03 | 0.86 | 0.03 | 99 | 1011.8 |
| 20260509161803 | 9 | 0 | 0.0 | 0.0 | 0.03 | 0.86 | 0.03 | 99 | 1011.8 |
| 20260509161504 | 9 | 0 | 0.0 | 0.0 | 0.03 | 0.86 | 0.03 | 99 | 1011.8 |
| 20260509161203 | 9 | 0 | 0.0 | 0.0 | 0.03 | 0.86 | 0.03 | 99 | 1011.9 |
| 20260509160904 | 9 | 0 | 0.0 | 0.0 | 0.03 | 0.86 | 0.03 | 99 | 1011.9 |
| 20260509160604 | 9 | 0 | 0.0 | 0.0 | 0.03 | 0.86 | 0.03 | 99 | 1011.6 |
| 20260509160304 | 9 | 1 | 0.0 | 1.6 | 0.00 | 0.84 | 0.00 | 99 | 1011.7 |
| 20260509160004 | 9 | 1 | 0.0 | 1.6 | 0.00 | 0.84 | 0.00 | 99 | 1011.7 |
| 20260509155704 | 9 | 1 | 0.0 | 1.6 | 0.00 | 0.84 | 0.00 | 99 | 1011.7 |
| 20260509155404 | 9 | 0 | 0.0 | 0.0 | 0.00 | 0.84 | 0.00 | 99 | 1011.7 |
| 20260509155103 | 9 | 0 | 0.0 | 0.0 | 0.00 | 0.84 | 0.00 | 99 | 1011.6 |
| 20260509154504 | 10 | 0 | 0.0 | 0.0 | 0.00 | 0.84 | 0.00 | 99 | 1011.6 |
| 20260509154203 | 10 | 0 | 0.0 | 0.0 | 0.00 | 0.84 | 0.00 | 99 | 1011.7 |
| 20260509153905 | 10 | 0 | 0.0 | 0.0 | 0.00 | 0.84 | 0.00 | 99 | 1011.5 |
| 20260509153604 | 10 | 0 | 0.0 | 0.0 | 0.00 | 0.84 | 0.00 | 99 | 1011.5 |
| 20260509153306 | 10 | 0 | 0.0 | 0.0 | 0.00 | 0.84 | 0.00 | 99 | 1011.5 |
| 20260509153004 | 10 | 0 | 0.0 | 0.0 | 0.00 | 0.84 | 0.00 | 99 | 1011.6 |
| 20260509152405 | 10 | 0 | 0.0 | 0.0 | 0.00 | 0.84 | 0.00 | 99 | 1011.5 |
| 20260509152106 | 10 | 0 | 0.0 | 0.0 | 0.00 | 0.84 | 0.00 | 99 | 1011.5 |
| 20260509151805 | 10 | 0 | 0.0 | 0.0 | 0.00 | 0.84 | 0.00 | 99 | 1011.5 |
| 20260509151504 | 10 | 0 | 0.0 | 0.0 | 0.00 | 0.84 | 0.00 | 99 | 1011.5 |
| 20260509151204 | 10 | 0 | 0.0 | 0.0 | 0.00 | 0.84 | 0.00 | 99 | 1011.7 |
| 20260509150904 | 10 | 0 | 0.0 | 0.0 | 0.00 | 0.84 | 0.00 | 99 | 1011.8 |
| 20260509150603 | 10 | 0 | 0.0 | 0.0 | 0.00 | 0.84 | 0.00 | 99 | 1011.8 |
| 20260509150305 | 10 | 0 | 0.0 | 0.0 | 0.00 | 0.84 | 0.00 | 99 | 1011.6 |
| 20260509150003 | 10 | 0 | 0.0 | 0.0 | 0.00 | 0.84 | 0.00 | 99 | 1011.8 |
| 20260509145704 | 10 | 0 | 0.0 | 0.0 | 0.00 | 0.84 | 0.00 | 99 | 1011.8 |
| 20260509145403 | 10 | 0 | 0.0 | 0.0 | 0.00 | 0.84 | 0.00 | 99 | 1012.0 |
| 20260509145104 | 10 | 0 | 0.0 | 0.0 | 0.00 | 0.84 | 0.00 | 99 | 1012.1 |
| 20260509144504 | 10 | 0 | 0.0 | 0.0 | 0.00 | 0.84 | 0.00 | 99 | 1012.0 |
| 20260509144204 | 10 | 0 | 0.0 | 0.0 | 0.00 | 0.84 | 0.00 | 99 | 1012.0 |
| 20260509143904 | 10 | 0 | 0.0 | 0.0 | 0.00 | 0.84 | 0.00 | 99 | 1012.0 |
| 20260509143304 | 10 | 0 | 0.0 | 0.0 | 0.00 | 0.84 | 0.00 | 99 | 1012.1 |
| 20260509143005 | 10 | 0 | 0.0 | 0.0 | 0.00 | 0.84 | 0.00 | 99 | 1012.0 |
| 20260509142703 | 10 | 0 | 0.0 | 0.0 | 0.00 | 0.84 | 0.00 | 99 | 1012.1 |
| 20260509141803 | 10 | 0 | 0.0 | 0.0 | 0.00 | 0.84 | 0.00 | 99 | 1011.9 |
| 20260509141504 | 10 | 0 | 0.0 | 0.0 | 0.00 | 0.84 | 0.00 | 99 | 1012.0 |
| 20260509140904 | 10 | 0 | 0.0 | 0.0 | 0.00 | 0.84 | 0.00 | 99 | 1012.2 |
| 20260509140604 | 10 | 181 | 0.0 | 1.6 | 0.00 | 0.84 | 0.00 | 99 | 1012.3 |
| 20260509140304 | 10 | 225 | 0.0 | 1.6 | 0.00 | 0.84 | 0.00 | 99 | 1012.2 |
| 20260509140005 | 10 | 225 | 0.0 | 1.6 | 0.00 | 0.84 | 0.00 | 99 | 1012.2 |
| 20260509135705 | 10 | 225 | 0.0 | 1.6 | 0.00 | 0.84 | 0.00 | 99 | 1012.3 |
| 20260509135404 | 10 | 0 | 0.0 | 0.0 | 0.00 | 0.84 | 0.00 | 99 | 1012.3 |
| 20260509135105 | 10 | 0 | 0.0 | 0.0 | 0.00 | 0.84 | 0.00 | 99 | 1012.3 |
| 20260509134805 | 10 | 0 | 0.0 | 0.0 | 0.00 | 0.84 | 0.00 | 99 | 1012.3 |
| 20260509134504 | 10 | 0 | 0.0 | 0.0 | 0.00 | 0.84 | 0.00 | 99 | 1012.3 |
| 20260509134204 | 10 | 0 | 0.0 | 0.0 | 0.00 | 0.84 | 0.00 | 99 | 1012.3 |
| 20260509133904 | 10 | 0 | 0.0 | 0.0 | 0.00 | 0.84 | 0.00 | 99 | 1012.2 |
| 20260509133604 | 10 | 0 | 0.0 | 0.0 | 0.00 | 0.84 | 0.00 | 99 | 1012.4 |
| 20260509133306 | 10 | 0 | 0.0 | 0.0 | 0.00 | 0.84 | 0.00 | 99 | 1012.5 |
| 20260509133004 | 10 | 0 | 0.0 | 0.0 | 0.00 | 0.84 | 0.00 | 99 | 1012.4 |
| 20260509132704 | 10 | 0 | 0.0 | 0.0 | 0.00 | 0.84 | 0.00 | 99 | 1012.4 |
| 20260509132404 | 10 | 0 | 0.0 | 0.0 | 0.00 | 0.84 | 0.00 | 99 | 1012.5 |
| 20260509131804 | 10 | 0 | 0.0 | 0.0 | 0.00 | 0.84 | 0.00 | 99 | 1012.4 |
| 20260509131204 | 10 | 0 | 0.0 | 0.0 | 0.00 | 0.84 | 0.00 | 99 | 1012.5 |
| 20260509130903 | 10 | 0 | 0.0 | 0.0 | 0.00 | 0.84 | 0.00 | 99 | 1012.6 |
| 20260509130604 | 10 | 0 | 0.0 | 0.0 | 0.00 | 0.84 | 0.00 | 99 | 1012.4 |
| 20260509130004 | 10 | 0 | 0.0 | 0.0 | 0.00 | 0.84 | 0.00 | 99 | 1012.4 |
| 20260509125704 | 10 | 0 | 0.0 | 0.0 | 0.00 | 0.84 | 0.00 | 99 | 1012.5 |
| 20260509125104 | 10 | 0 | 0.0 | 0.0 | 0.00 | 0.84 | 0.00 | 99 | 1012.5 |
| 20260509124804 | 10 | 0 | 0.0 | 0.0 | 0.00 | 0.84 | 0.00 | 99 | 1012.5 |
| 20260509124503 | 10 | 0 | 0.0 | 0.0 | 0.00 | 0.84 | 0.00 | 99 | 1012.5 |
| 20260509124204 | 10 | 0 | 0.0 | 0.0 | 0.00 | 0.84 | 0.00 | 99 | 1012.5 |
| 20260509123906 | 10 | 0 | 0.0 | 0.0 | 0.00 | 0.84 | 0.00 | 99 | 1012.5 |
| 20260509123603 | 10 | 0 | 0.0 | 0.0 | 0.00 | 0.86 | 0.00 | 99 | 1012.5 |
| 20260509122403 | 10 | 1 | 0.0 | 1.6 | 0.00 | 0.86 | 0.00 | 99 | 1012.6 |
| 20260509122104 | 10 | 1 | 0.0 | 1.6 | 0.00 | 0.86 | 0.00 | 99 | 1012.6 |
| 20260509121504 | 10 | 0 | 0.0 | 0.0 | 0.00 | 0.89 | 0.00 | 99 | 1012.5 |
| 20260509121204 | 10 | 0 | 0.0 | 0.0 | 0.00 | 0.94 | 0.00 | 99 | 1012.6 |
| 20260509120904 | 10 | 0 | 0.0 | 0.0 | 0.00 | 0.94 | 0.00 | 99 | 1012.7 |
| 20260509120603 | 10 | 0 | 0.0 | 0.0 | 0.00 | 0.97 | 0.00 | 99 | 1012.6 |
| 20260509120304 | 10 | 0 | 0.0 | 0.0 | 0.00 | 1.09 | 0.00 | 99 | 1012.6 |
| 20260509120005 | 10 | 1 | 0.0 | 1.6 | 0.00 | 1.22 | 0.00 | 99 | 1012.5 |
| 20260509115405 | 10 | 11 | 0.0 | 3.2 | 0.00 | 1.30 | 1.22 | 99 | 1012.6 |
| 20260509115104 | 10 | 12 | 0.0 | 3.2 | 0.00 | 1.30 | 1.22 | 99 | 1012.6 |
| 20260509114804 | 10 | 14 | 0.0 | 3.2 | 0.00 | 1.32 | 1.22 | 99 | 1012.7 |
| 20260509114504 | 10 | 314 | 0.0 | 1.6 | 0.00 | 1.32 | 1.22 | 99 | 1012.6 |
| 20260509114204 | 10 | 265 | 0.0 | 3.2 | 0.00 | 1.35 | 1.22 | 99 | 1012.5 |
| 20260509113903 | 10 | 253 | 0.0 | 3.2 | 0.00 | 1.37 | 1.22 | 99 | 1012.5 |
| 20260509113605 | 10 | 262 | 0.0 | 3.2 | 0.00 | 1.42 | 1.22 | 99 | 1012.5 |
| 20260509113304 | 10 | 264 | 0.0 | 3.2 | 0.00 | 1.45 | 1.22 | 99 | 1012.4 |
| 20260509113004 | 10 | 270 | 1.6 | 3.2 | 0.00 | 1.45 | 1.22 | 99 | 1012.4 |
| 20260509112704 | 10 | 278 | 0.0 | 1.6 | 0.00 | 1.47 | 1.22 | 99 | 1012.4 |
| 20260509112104 | 10 | 248 | 0.0 | 1.6 | 0.00 | 1.50 | 1.22 | 99 | 1012.3 |
| 20260509111804 | 10 | 135 | 0.0 | 1.6 | 0.00 | 1.52 | 1.22 | 99 | 1012.4 |
| 20260509111504 | 10 | 135 | 0.0 | 1.6 | 0.00 | 1.52 | 1.22 | 99 | 1012.2 |
| 20260509111204 | 10 | 142 | 0.0 | 1.6 | 0.00 | 1.55 | 1.22 | 99 | 1012.3 |
| 20260509110904 | 10 | 147 | 0.0 | 1.6 | 0.00 | 1.60 | 1.22 | 99 | 1012.5 |
| 20260509110604 | 10 | 163 | 0.0 | 1.6 | 0.00 | 1.63 | 1.22 | 99 | 1012.3 |
| 20260509110304 | 10 | 181 | 0.0 | 1.6 | 0.00 | 1.63 | 1.22 | 99 | 1012.4 |
| 20260509110004 | 10 | 0 | 0.0 | 0.0 | 0.00 | 1.65 | 1.22 | 99 | 1012.4 |
| 20260509105704 | 10 | 0 | 0.0 | 0.0 | 0.00 | 1.68 | 1.22 | 99 | 1012.4 |
| 20260509105403 | 11 | 181 | 0.0 | 1.6 | 0.00 | 1.70 | 1.22 | 99 | 1012.4 |
| 20260509104803 | 11 | 64 | 0.0 | 3.2 | 0.00 | 1.78 | 1.22 | 98 | 1012.4 |
| 20260509104504 | 11 | 50 | 0.0 | 3.2 | 0.00 | 1.80 | 1.22 | 98 | 1012.5 |
| 20260509104203 | 11 | 45 | 0.0 | 3.2 | 0.00 | 1.83 | 1.22 | 98 | 1012.5 |
| 20260509103904 | 11 | 31 | 0.0 | 3.2 | 0.00 | 1.85 | 1.22 | 98 | 1012.4 |
| 20260509103605 | 11 | 6 | 0.0 | 1.6 | 0.00 | 1.85 | 1.22 | 98 | 1012.5 |
| 20260509103304 | 11 | 1 | 0.0 | 3.2 | 0.00 | 1.93 | 1.22 | 98 | 1012.5 |
| 20260509103003 | 11 | 1 | 0.0 | 3.2 | 0.00 | 1.93 | 1.22 | 98 | 1012.6 |
| 20260509102707 | 11 | 1 | 0.0 | 3.2 | 0.00 | 1.93 | 1.22 | 98 | 1012.7 |
| 20260509102404 | 11 | 1 | 0.0 | 3.2 | 0.00 | 1.93 | 1.22 | 98 | 1012.6 |
| 20260509102104 | 11 | 0 | 0.0 | 0.0 | 0.00 | 1.96 | 1.22 | 98 | 1012.6 |
| 20260509101504 | 11 | 135 | 0.0 | 1.6 | 0.00 | 2.01 | 1.22 | 98 | 1012.6 |
| 20260509100904 | 12 | 0 | 0.0 | 0.0 | 0.00 | 2.11 | 1.22 | 97 | 1012.5 |
| 20260509100603 | 12 | 0 | 0.0 | 0.0 | 0.00 | 2.11 | 1.22 | 97 | 1012.5 |
| 20260509100304 | 12 | 0 | 0.0 | 0.0 | 0.00 | 2.16 | 1.22 | 97 | 1012.6 |
| 20260509100005 | 12 | 0 | 0.0 | 0.0 | 0.00 | 2.21 | 1.22 | 97 | 1012.5 |
| 20260509095704 | 12 | 0 | 0.0 | 0.0 | 0.00 | 2.29 | 1.22 | 97 | 1012.6 |
| 20260509095406 | 12 | 0 | 0.0 | 0.0 | 0.00 | 2.29 | 1.22 | 97 | 1012.5 |
| 20260509095105 | 12 | 248 | 0.0 | 1.6 | 0.00 | 2.29 | 1.22 | 97 | 1012.6 |
| 20260509094803 | 12 | 192 | 0.0 | 1.6 | 0.00 | 2.29 | 1.22 | 97 | 1012.4 |
| 20260509094203 | 12 | 154 | 0.0 | 3.2 | 0.00 | 2.29 | 1.22 | 97 | 1012.4 |
| 20260509093604 | 12 | 147 | 0.0 | 3.2 | 0.00 | 2.29 | 1.22 | 97 | 1012.4 |
| 20260509093304 | 12 | 0 | 0.0 | 0.0 | 0.00 | 2.29 | 1.22 | 97 | 1012.3 |
| 20260509093006 | 12 | 0 | 0.0 | 0.0 | 0.00 | 2.29 | 1.22 | 97 | 1012.3 |
| 20260509092704 | 12 | 0 | 0.0 | 0.0 | 0.00 | 2.34 | 1.22 | 97 | 1012.3 |
| 20260509092403 | 12 | 0 | 0.0 | 0.0 | 0.00 | 2.36 | 1.22 | 97 | 1012.3 |
| 20260509092106 | 12 | 0 | 0.0 | 0.0 | 0.00 | 2.36 | 1.22 | 97 | 1012.2 |
| 20260509091804 | 12 | 0 | 0.0 | 0.0 | 0.03 | 2.36 | 1.22 | 97 | 1012.4 |
| 20260509091204 | 12 | 181 | 0.0 | 3.2 | 0.18 | 2.36 | 1.22 | 97 | 1012.4 |
| 20260509090604 | 12 | 181 | 0.0 | 3.2 | 0.18 | 2.36 | 1.22 | 97 | 1012.2 |
| 20260509090005 | 12 | 231 | 0.0 | 3.2 | 0.18 | 2.39 | 1.22 | 97 | 1012.2 |
| 20260509085704 | 12 | 260 | 0.0 | 3.2 | 0.18 | 2.39 | 1.22 | 97 | 1012.1 |
| 20260509085404 | 12 | 274 | 0.0 | 4.8 | 0.18 | 2.39 | 1.22 | 97 | 1012.3 |
| 20260509085103 | 12 | 278 | 0.0 | 4.8 | 0.18 | 2.39 | 1.22 | 97 | 1012.2 |
| 20260509084804 | 12 | 272 | 3.2 | 4.8 | 0.18 | 2.44 | 1.22 | 97 | 1012.3 |
| 20260509084504 | 12 | 272 | 1.6 | 6.4 | 0.18 | 2.44 | 1.22 | 97 | 1012.1 |
| 20260509083903 | 12 | 249 | 1.6 | 6.4 | 0.18 | 2.49 | 1.22 | 97 | 1012.2 |
| 20260509083604 | 12 | 231 | 3.2 | 8.0 | 0.18 | 2.51 | 1.22 | 97 | 1012.1 |
| 20260509083004 | 12 | 186 | 3.2 | 8.0 | 0.18 | 2.51 | 1.22 | 97 | 1012.2 |
| 20260509082703 | 12 | 160 | 3.2 | 14.5 | 0.18 | 2.51 | 1.22 | 97 | 1012.2 |
| 20260509081804 | 12 | 136 | 4.8 | 16.1 | 0.10 | 2.46 | 1.17 | 97 | 1012.1 |
| 20260509081504 | 12 | 140 | 11.3 | 16.1 | 0.00 | 2.36 | 1.04 | 97 | 1012.1 |
| 20260509081206 | 12 | 135 | 6.4 | 6.4 | 0.00 | 2.36 | 1.04 | 97 | 1012.1 |
| 20260509080904 | 12 | 0 | 0.0 | 0.0 | 0.00 | 2.36 | 1.04 | 97 | 1012.0 |
| 20260509080604 | 12 | 0 | 0.0 | 0.0 | 0.00 | 2.36 | 1.04 | 97 | 1012.1 |
| 20260509080304 | 12 | 0 | 0.0 | 0.0 | 0.00 | 2.36 | 1.04 | 97 | 1012.1 |
| 20260509080005 | 12 | 0 | 0.0 | 0.0 | 0.00 | 2.36 | 1.04 | 97 | 1012.2 |
| 20260509075704 | 12 | 0 | 0.0 | 0.0 | 0.00 | 2.36 | 1.04 | 97 | 1012.1 |
| 20260509075404 | 12 | 0 | 0.0 | 0.0 | 0.00 | 2.36 | 1.04 | 97 | 1012.0 |
| 20260509075103 | 12 | 0 | 0.0 | 0.0 | 0.00 | 2.36 | 1.04 | 97 | 1012.2 |
| 20260509074804 | 12 | 0 | 0.0 | 0.0 | 0.00 | 2.36 | 1.04 | 97 | 1012.1 |
| 20260509074504 | 12 | 0 | 0.0 | 0.0 | 0.00 | 2.36 | 1.04 | 97 | 1012.0 |
| 20260509074204 | 12 | 0 | 0.0 | 0.0 | 0.00 | 2.36 | 1.04 | 97 | 1012.0 |
| 20260509073904 | 12 | 0 | 0.0 | 0.0 | 0.00 | 2.36 | 1.04 | 97 | 1011.8 |
| 20260509073304 | 12 | 0 | 0.0 | 0.0 | 0.00 | 2.36 | 1.04 | 97 | 1011.8 |
| 20260509072704 | 12 | 0 | 0.0 | 0.0 | 0.00 | 2.36 | 1.04 | 97 | 1011.8 |
| 20260509072404 | 12 | 0 | 0.0 | 0.0 | 0.00 | 2.36 | 1.04 | 97 | 1011.8 |
| 20260509072103 | 12 | 0 | 0.0 | 0.0 | 0.00 | 2.36 | 1.04 | 96 | 1011.8 |
| 20260509071505 | 12 | 0 | 0.0 | 0.0 | 0.00 | 2.36 | 1.04 | 96 | 1011.8 |
| 20260509071204 | 12 | 0 | 0.0 | 0.0 | 0.00 | 2.36 | 1.04 | 96 | 1011.9 |
| 20260509070903 | 12 | 0 | 0.0 | 0.0 | 0.00 | 2.36 | 1.04 | 96 | 1011.8 |
| 20260509070603 | 12 | 0 | 0.0 | 0.0 | 0.00 | 2.36 | 1.04 | 96 | 1011.7 |
| 20260509070305 | 12 | 0 | 0.0 | 0.0 | 0.00 | 2.39 | 1.04 | 96 | 1011.7 |
| 20260509070003 | 12 | 0 | 0.0 | 0.0 | 0.00 | 2.39 | 1.04 | 95 | 1012.0 |
| 20260509065704 | 12 | 0 | 0.0 | 0.0 | 0.00 | 2.39 | 1.04 | 95 | 1011.8 |
| 20260509065103 | 12 | 0 | 0.0 | 0.0 | 0.00 | 2.39 | 1.04 | 95 | 1011.7 |
| 20260509064505 | 12 | 0 | 0.0 | 0.0 | 0.00 | 2.39 | 1.04 | 94 | 1011.8 |
| 20260509064204 | 12 | 0 | 0.0 | 0.0 | 0.00 | 2.39 | 1.04 | 94 | 1011.9 |
| 20260509063604 | 12 | 0 | 0.0 | 0.0 | 0.00 | 2.39 | 1.04 | 94 | 1011.6 |
| 20260509063303 | 12 | 0 | 0.0 | 0.0 | 0.00 | 2.39 | 1.04 | 94 | 1011.6 |
| 20260509063004 | 12 | 0 | 0.0 | 0.0 | 0.00 | 2.39 | 1.04 | 94 | 1011.5 |
| 20260509062704 | 12 | 0 | 0.0 | 0.0 | 0.00 | 2.39 | 1.04 | 95 | 1011.4 |
| 20260509062403 | 13 | 0 | 0.0 | 0.0 | 0.00 | 2.39 | 1.04 | 95 | 1011.4 |
| 20260509062104 | 13 | 0 | 0.0 | 0.0 | 0.00 | 2.39 | 1.04 | 94 | 1011.4 |
| 20260509061803 | 13 | 0 | 0.0 | 0.0 | 0.00 | 2.39 | 1.04 | 94 | 1011.3 |
| 20260509061505 | 13 | 0 | 0.0 | 0.0 | 0.00 | 2.39 | 1.04 | 94 | 1011.5 |
| 20260509061204 | 13 | 0 | 0.0 | 0.0 | 0.00 | 2.39 | 1.04 | 94 | 1011.5 |
| 20260509060906 | 13 | 0 | 0.0 | 0.0 | 0.00 | 2.39 | 1.04 | 94 | 1011.3 |
| 20260509060303 | 13 | 0 | 0.0 | 0.0 | 0.00 | 2.39 | 1.04 | 93 | 1011.6 |
| 20260509060004 | 13 | 0 | 0.0 | 0.0 | 0.00 | 2.39 | 1.04 | 93 | 1011.5 |
| 20260509055704 | 13 | 0 | 0.0 | 0.0 | 0.00 | 2.39 | 1.04 | 93 | 1011.5 |
| 20260509055106 | 13 | 0 | 0.0 | 0.0 | 0.00 | 2.39 | 1.04 | 93 | 1011.6 |
| 20260509054803 | 13 | 0 | 0.0 | 0.0 | 0.00 | 2.39 | 1.04 | 93 | 1011.5 |
| 20260509054203 | 13 | 178 | 0.0 | 3.2 | 0.00 | 2.39 | 1.04 | 93 | 1011.5 |
| 20260509053904 | 13 | 198 | 0.0 | 6.4 | 0.00 | 2.39 | 1.04 | 92 | 1011.5 |
| 20260509053603 | 14 | 225 | 0.0 | 9.7 | 0.00 | 2.39 | 1.04 | 92 | 1011.7 |
| 20260509053303 | 14 | 244 | 3.2 | 9.7 | 0.00 | 2.39 | 1.04 | 92 | 1011.7 |
| 20260509053004 | 14 | 252 | 4.8 | 9.7 | 0.00 | 2.39 | 1.04 | 91 | 1011.6 |
| 20260509052704 | 14 | 263 | 3.2 | 8.0 | 0.00 | 2.39 | 1.04 | 91 | 1011.8 |
| 20260509052405 | 14 | 266 | 3.2 | 11.3 | 0.00 | 2.39 | 1.04 | 91 | 1011.7 |
| 20260509052103 | 14 | 267 | 3.2 | 11.3 | 0.00 | 2.39 | 1.04 | 91 | 1011.6 |
| 20260509051805 | 14 | 258 | 3.2 | 11.3 | 0.00 | 2.39 | 1.04 | 91 | 1011.6 |
| 20260509051504 | 14 | 243 | 4.8 | 8.0 | 0.00 | 2.39 | 1.04 | 91 | 1011.6 |
| 20260509051204 | 15 | 231 | 0.0 | 8.0 | 0.00 | 2.39 | 1.04 | 90 | 1011.5 |
| 20260509050904 | 15 | 237 | 3.2 | 8.0 | 0.00 | 2.39 | 1.04 | 90 | 1011.6 |
| 20260509050604 | 15 | 231 | 3.2 | 3.2 | 0.00 | 2.39 | 1.04 | 90 | 1011.6 |
| 20260509050003 | 15 | 231 | 0.0 | 4.8 | 0.00 | 2.39 | 1.04 | 89 | 1011.6 |
| 20260509045405 | 15 | 241 | 1.6 | 4.8 | 0.00 | 2.39 | 1.04 | 89 | 1011.5 |
| 20260509045104 | 15 | 250 | 0.0 | 6.4 | 0.00 | 2.39 | 1.04 | 89 | 1011.6 |
| 20260509044204 | 15 | 227 | 3.2 | 6.4 | 0.00 | 2.39 | 1.04 | 90 | 1011.7 |
| 20260509043604 | 15 | 217 | 1.6 | 6.4 | 0.00 | 2.39 | 1.04 | 89 | 1011.6 |
| 20260509043303 | 15 | 243 | 0.0 | 4.8 | 0.00 | 2.39 | 1.04 | 88 | 1011.7 |
| 20260509043004 | 15 | 261 | 0.0 | 4.8 | 0.00 | 2.39 | 1.04 | 87 | 1011.7 |
| 20260509042704 | 15 | 269 | 1.6 | 4.8 | 0.00 | 2.39 | 1.04 | 87 | 1011.6 |
| 20260509042403 | 15 | 282 | 3.2 | 4.8 | 0.00 | 2.39 | 1.04 | 86 | 1011.6 |
| 20260509042103 | 15 | 270 | 1.6 | 4.8 | 0.00 | 2.39 | 1.04 | 85 | 1011.7 |
| 20260509041804 | 16 | 240 | 0.0 | 1.6 | 0.00 | 2.39 | 1.04 | 84 | 1011.8 |
| 20260509041504 | 16 | 264 | 0.0 | 1.6 | 0.00 | 2.39 | 1.04 | 83 | 1011.7 |
| 20260509041204 | 16 | 322 | 0.0 | 3.2 | 0.00 | 2.39 | 1.04 | 83 | 1011.8 |
| 20260509040904 | 16 | 321 | 0.0 | 3.2 | 0.00 | 2.39 | 1.04 | 83 | 1011.7 |
| 20260509040604 | 16 | 313 | 0.0 | 3.2 | 0.00 | 2.39 | 1.04 | 84 | 1011.7 |
| 20260509040004 | 16 | 264 | 0.0 | 3.2 | 0.00 | 2.39 | 1.04 | 83 | 1011.9 |
| 20260509035706 | 16 | 284 | 1.6 | 4.8 | 0.00 | 2.39 | 1.04 | 81 | 1011.9 |
| 20260509035406 | 16 | 271 | 0.0 | 6.4 | 0.00 | 2.39 | 1.04 | 81 | 1011.9 |
| 20260509034804 | 16 | 269 | 1.6 | 6.4 | 0.00 | 2.39 | 1.04 | 79 | 1011.8 |
| 20260509034506 | 16 | 247 | 3.2 | 8.0 | 0.00 | 2.39 | 1.04 | 79 | 1011.7 |
| 20260509034204 | 16 | 230 | 1.6 | 8.0 | 0.00 | 2.39 | 1.04 | 78 | 1011.6 |
| 20260509033903 | 17 | 217 | 3.2 | 9.7 | 0.00 | 2.39 | 1.04 | 76 | 1011.4 |
| 20260509033303 | 17 | 208 | 4.8 | 9.7 | 0.00 | 2.39 | 1.04 | 77 | 1011.6 |
| 20260509033004 | 17 | 217 | 3.2 | 8.0 | 0.00 | 2.39 | 1.04 | 77 | 1011.7 |
| 20260509032703 | 17 | 234 | 4.8 | 8.0 | 0.05 | 2.39 | 1.04 | 78 | 1011.6 |
| 20260509031804 | 16 | 196 | 6.4 | 8.0 | 0.23 | 2.39 | 1.04 | 84 | 1011.9 |
| 20260509031503 | 16 | 213 | 3.2 | 11.3 | 0.38 | 2.39 | 1.04 | 83 | 1011.7 |
| 20260509031204 | 15 | 206 | 6.4 | 11.3 | 0.38 | 2.39 | 1.04 | 84 | 1011.8 |
| 20260509030903 | 15 | 211 | 1.6 | 11.3 | 0.43 | 2.39 | 1.04 | 84 | 1011.8 |
| 20260509030604 | 15 | 203 | 6.4 | 11.3 | 0.43 | 2.39 | 1.04 | 84 | 1011.7 |
| 20260509025404 | 15 | 223 | 6.4 | 12.9 | 0.43 | 2.39 | 1.04 | 90 | 1011.8 |
| 20260509025104 | 16 | 217 | 3.2 | 8.0 | 0.43 | 2.39 | 1.04 | 90 | 1011.9 |
| 20260509024804 | 16 | 200 | 4.8 | 12.9 | 0.43 | 2.39 | 1.04 | 90 | 1011.8 |
| 20260509024503 | 16 | 200 | 3.2 | 12.9 | 0.43 | 2.39 | 1.04 | 91 | 1011.9 |
| 20260509023904 | 15 | 201 | 6.4 | 12.9 | 0.43 | 2.39 | 1.04 | 91 | 1012.0 |
| 20260509023604 | 15 | 211 | 6.4 | 11.3 | 0.43 | 2.39 | 1.04 | 90 | 1012.2 |
| 20260509023305 | 15 | 229 | 3.2 | 8.0 | 0.43 | 2.39 | 1.04 | 90 | 1012.3 |
| 20260509023005 | 15 | 208 | 3.2 | 9.7 | 0.38 | 2.36 | 1.02 | 89 | 1012.2 |
| 20260509022704 | 15 | 184 | 1.6 | 12.9 | 0.36 | 2.34 | 0.99 | 87 | 1012.2 |
| 20260509022404 | 15 | 171 | 1.6 | 12.9 | 0.30 | 2.29 | 0.94 | 85 | 1012.3 |
| 20260509021504 | 16 | 183 | 11.3 | 12.9 | 0.03 | 2.01 | 0.66 | 78 | 1012.2 |
| 20260509021203 | 17 | 151 | 3.2 | 8.0 | 0.00 | 1.98 | 0.64 | 77 | 1012.2 |
| 20260509020904 | 17 | 135 | 3.2 | 6.4 | 0.03 | 1.98 | 0.64 | 76 | 1012.0 |
| 20260509020603 | 17 | 314 | 0.0 | 1.6 | 0.03 | 1.98 | 0.64 | 76 | 1012.1 |
| 20260509020304 | 17 | 314 | 0.0 | 1.6 | 0.10 | 1.98 | 0.64 | 76 | 1012.1 |
| 20260509020004 | 17 | 314 | 0.0 | 1.6 | 0.10 | 1.98 | 0.64 | 76 | 1012.1 |
| 20260509015703 | 17 | 314 | 0.0 | 1.6 | 0.15 | 1.98 | 0.64 | 75 | 1012.1 |
| 20260509015405 | 17 | 314 | 0.0 | 1.6 | 0.23 | 1.98 | 0.64 | 76 | 1012.1 |
| 20260509015104 | 17 | 314 | 0.0 | 1.6 | 0.23 | 1.98 | 0.64 | 76 | 1012.1 |
| 20260509014804 | 17 | 314 | 0.0 | 3.2 | 0.23 | 1.98 | 0.64 | 76 | 1011.9 |
| 20260509014503 | 17 | 290 | 0.0 | 3.2 | 0.23 | 1.98 | 0.64 | 78 | 1012.0 |
| 20260509014203 | 17 | 281 | 0.0 | 3.2 | 0.23 | 1.98 | 0.64 | 78 | 1012.0 |
| 20260509013903 | 17 | 286 | 0.0 | 3.2 | 0.23 | 1.98 | 0.64 | 80 | 1012.0 |
| 20260509013604 | 17 | 254 | 0.0 | 6.4 | 0.23 | 1.98 | 0.64 | 83 | 1012.1 |
| 20260509013004 | 16 | 266 | 0.0 | 9.7 | 0.23 | 1.98 | 0.64 | 86 | 1012.2 |
| 20260509012704 | 16 | 264 | 3.2 | 11.3 | 0.23 | 1.98 | 0.64 | 87 | 1012.1 |
| 20260509012403 | 15 | 252 | 3.2 | 17.7 | 0.23 | 1.98 | 0.64 | 88 | 1012.0 |
| 20260509011803 | 15 | 238 | 3.2 | 17.7 | 0.23 | 1.98 | 0.64 | 86 | 1012.3 |
| 20260509011505 | 15 | 227 | 8.0 | 17.7 | 0.23 | 1.98 | 0.64 | 86 | 1012.2 |
| 20260509011204 | 15 | 193 | 3.2 | 17.7 | 0.23 | 1.98 | 0.64 | 83 | 1012.0 |
| 20260509010906 | 16 | 186 | 6.4 | 17.7 | 0.20 | 1.96 | 0.61 | 81 | 1012.2 |
| 20260509010304 | 17 | 187 | 6.4 | 11.3 | 0.15 | 1.88 | 0.53 | 74 | 1012.1 |
| 20260509010004 | 17 | 188 | 3.2 | 11.3 | 0.15 | 1.88 | 0.53 | 70 | 1012.0 |
| 20260509005704 | 18 | 196 | 6.4 | 12.9 | 0.10 | 1.83 | 0.48 | 67 | 1012.2 |
| 20260509005404 | 18 | 217 | 3.2 | 12.9 | 0.00 | 1.75 | 0.38 | 64 | 1012.2 |
| 20260509005106 | 19 | 233 | 4.8 | 12.9 | 0.00 | 1.75 | 0.38 | 61 | 1012.2 |
| 20260509004503 | 20 | 287 | 3.2 | 12.9 | 0.00 | 1.75 | 0.38 | 61 | 1012.2 |
| 20260509004205 | 19 | 296 | 6.4 | 12.9 | 0.00 | 1.75 | 0.38 | 62 | 1012.3 |
| 20260509003903 | 20 | 278 | 6.4 | 14.5 | 0.00 | 1.75 | 0.38 | 63 | 1012.2 |
| 20260509003604 | 19 | 256 | 6.4 | 17.7 | 0.00 | 1.75 | 0.38 | 62 | 1012.4 |
| 20260509002704 | 20 | 214 | 8.0 | 17.7 | 0.00 | 1.75 | 0.38 | 61 | 1012.6 |
| 20260509002104 | 20 | 240 | 6.4 | 19.3 | 0.00 | 1.75 | 0.38 | 61 | 1012.6 |
| 20260509001803 | 19 | 239 | 4.8 | 19.3 | 0.00 | 1.75 | 0.38 | 62 | 1012.7 |
| 20260509001503 | 19 | 236 | 9.7 | 19.3 | 0.00 | 1.75 | 0.38 | 62 | 1012.6 |
| 20260509001206 | 20 | 229 | 9.7 | 20.9 | 0.00 | 1.75 | 0.38 | 60 | 1012.6 |
| 20260509000904 | 20 | 258 | 6.4 | 20.9 | 0.00 | 1.75 | 0.38 | 63 | 1012.6 |
| 20260509000604 | 19 | 251 | 9.7 | 22.5 | 0.00 | 1.75 | 0.38 | 63 | 1012.8 |
| 20260509000304 | 18 | 285 | 11.3 | 22.5 | 0.00 | 1.75 | 0.38 | 66 | 1012.8 |
| 20260509000004 | 18 | 261 | 6.4 | 22.5 | 0.00 | 1.75 | 0.38 | 62 | 1012.8 |
| 20260508235704 | 20 | 246 | 14.5 | 22.5 | 0.00 | 1.75 | 0.38 | 60 | 1012.9 |